| time (UTC) | temp C | wind direction | speed KPH | gust KPH | rain 1hr cm | rain 24hr cm | rain mn cm | humidity % | barometer mb |
| 20260505224538 | 27 | 143 | 6.4 | 17.7 | 0.00 | 0.00 | 0.00 | 33 | 1007.2 |
| 20260505224020 | 27 | 0 | 3.2 | 16.1 | 0.00 | 0.00 | 0.00 | 33 | 1007.2 |
| 20260505223521 | 27 | 232 | 1.6 | 17.7 | 0.00 | 0.00 | 0.00 | 32 | 1007.1 |
| 20260505223037 | 27 | 166 | 4.8 | 22.5 | 0.00 | 0.00 | 0.00 | 32 | 1007.2 |
| 20260505222520 | 27 | 200 | 4.8 | 24.1 | 0.00 | 0.00 | 0.00 | 31 | 1007.2 |
| 20260505222023 | 27 | 221 | 4.8 | 27.4 | 0.00 | 0.00 | 0.00 | 31 | 1007.4 |
| 20260505221536 | 27 | 219 | 12.9 | 32.2 | 0.00 | 0.00 | 0.00 | 30 | 1007.2 |
| 20260505221021 | 27 | 181 | 6.4 | 32.2 | 0.00 | 0.00 | 0.00 | 30 | 1007.2 |
| 20260505220520 | 27 | 210 | 6.4 | 25.7 | 0.00 | 0.00 | 0.00 | 30 | 1007.3 |
| 20260505220052 | 27 | 230 | 6.4 | 29.0 | 0.00 | 0.00 | 0.00 | 29 | 1007.2 |
| 20260505215520 | 27 | 190 | 9.7 | 40.2 | 0.00 | 0.00 | 0.00 | 29 | 1007.3 |
| 20260505215020 | 28 | 307 | 9.7 | 40.2 | 0.00 | 0.00 | 0.00 | 28 | 1007.2 |
| 20260505214550 | 28 | 202 | 4.8 | 32.2 | 0.00 | 0.00 | 0.00 | 28 | 1007.0 |
| 20260505214020 | 28 | 239 | 3.2 | 22.5 | 0.00 | 0.00 | 0.00 | 28 | 1007.0 |
| 20260505213521 | 28 | 232 | 6.4 | 22.5 | 0.00 | 0.00 | 0.00 | 27 | 1006.8 |
| 20260505213039 | 28 | 140 | 6.4 | 22.5 | 0.00 | 0.00 | 0.00 | 27 | 1006.8 |
| 20260505212521 | 28 | 240 | 6.4 | 24.1 | 0.00 | 0.00 | 0.00 | 28 | 1006.8 |
| 20260505212021 | 29 | 207 | 8.0 | 27.4 | 0.00 | 0.00 | 0.00 | 27 | 1006.9 |
| 20260505211540 | 29 | 188 | 4.8 | 29.0 | 0.00 | 0.00 | 0.00 | 28 | 1006.9 |
| 20260505211020 | 29 | 269 | 11.3 | 30.6 | 0.00 | 0.00 | 0.00 | 28 | 1006.8 |
| 20260505210520 | 29 | 208 | 12.9 | 30.6 | 0.00 | 0.00 | 0.00 | 27 | 1006.9 |
| 20260505210045 | 29 | 205 | 9.7 | 33.8 | 0.00 | 0.00 | 0.00 | 28 | 1006.9 |
| 20260505205524 | 30 | 215 | 12.9 | 33.8 | 0.00 | 0.00 | 0.00 | 28 | 1006.8 |
| 20260505205022 | 30 | 236 | 6.4 | 24.1 | 0.00 | 0.00 | 0.00 | 29 | 1006.9 |
| 20260505204545 | 29 | 207 | 8.0 | 24.1 | 0.00 | 0.00 | 0.00 | 29 | 1006.8 |
| 20260505204021 | 29 | 209 | 8.0 | 19.3 | 0.00 | 0.00 | 0.00 | 30 | 1006.8 |
| 20260505203521 | 28 | 70 | 8.0 | 30.6 | 0.00 | 0.00 | 0.00 | 31 | 1006.8 |
| 20260505203043 | 29 | 205 | 14.5 | 30.6 | 0.00 | 0.00 | 0.00 | 30 | 1006.9 |
| 20260505202520 | 29 | 232 | 11.3 | 27.4 | 0.00 | 0.00 | 0.00 | 30 | 1007.1 |
| 20260505202022 | 29 | 225 | 8.0 | 29.0 | 0.00 | 0.00 | 0.00 | 31 | 1007.0 |
| 20260505201546 | 29 | 213 | 9.7 | 35.4 | 0.00 | 0.00 | 0.00 | 30 | 1007.0 |
| 20260505201022 | 29 | 217 | 4.8 | 35.4 | 0.00 | 0.00 | 0.00 | 30 | 1007.1 |
| 20260505200522 | 29 | 210 | 11.3 | 35.4 | 0.00 | 0.00 | 0.00 | 31 | 1007.0 |
| 20260505200040 | 29 | 274 | 8.0 | 41.8 | 0.00 | 0.00 | 0.00 | 31 | 1007.1 |
| 20260505195522 | 29 | 195 | 14.5 | 41.8 | 0.00 | 0.00 | 0.00 | 30 | 1007.1 |
| 20260505195022 | 29 | 207 | 9.7 | 29.0 | 0.00 | 0.00 | 0.00 | 31 | 1007.1 |
| 20260505194538 | 29 | 208 | 9.7 | 29.0 | 0.00 | 0.00 | 0.00 | 31 | 1007.1 |
| 20260505194027 | 29 | 197 | 8.0 | 30.6 | 0.00 | 0.00 | 0.00 | 31 | 1007.1 |
| 20260505193522 | 29 | 184 | 12.9 | 30.6 | 0.00 | 0.00 | 0.00 | 30 | 1007.2 |
| 20260505193042 | 30 | 259 | 6.4 | 29.0 | 0.00 | 0.00 | 0.00 | 31 | 1007.2 |
| 20260505192522 | 29 | 198 | 12.9 | 32.2 | 0.00 | 0.00 | 0.00 | 31 | 1007.3 |
| 20260505192022 | 30 | 142 | 11.3 | 32.2 | 0.00 | 0.00 | 0.00 | 30 | 1007.3 |
| 20260505191537 | 29 | 214 | 8.0 | 32.2 | 0.00 | 0.00 | 0.00 | 31 | 1007.4 |
| 20260505191022 | 29 | 204 | 14.5 | 32.2 | 0.00 | 0.00 | 0.00 | 30 | 1007.5 |
| 20260505190526 | 29 | 238 | 9.7 | 29.0 | 0.00 | 0.00 | 0.00 | 32 | 1007.5 |
| 20260505190043 | 30 | 171 | 4.8 | 29.0 | 0.00 | 0.00 | 0.00 | 32 | 1007.6 |
| 20260505185522 | 30 | 290 | 8.0 | 29.0 | 0.00 | 0.00 | 0.00 | 32 | 1007.7 |
| 20260505185024 | 30 | 215 | 6.4 | 29.0 | 0.00 | 0.00 | 0.00 | 34 | 1007.7 |
| 20260505184548 | 29 | 200 | 14.5 | 29.0 | 0.00 | 0.00 | 0.00 | 33 | 1007.6 |
| 20260505184022 | 29 | 71 | 8.0 | 27.4 | 0.00 | 0.00 | 0.00 | 34 | 1007.9 |
| 20260505183523 | 29 | 234 | 6.4 | 25.7 | 0.00 | 0.00 | 0.00 | 34 | 1007.9 |
| 20260505183047 | 29 | 205 | 6.4 | 25.7 | 0.00 | 0.00 | 0.00 | 35 | 1008.0 |
| 20260505182524 | 29 | 235 | 4.8 | 27.4 | 0.00 | 0.00 | 0.00 | 35 | 1008.0 |
| 20260505182022 | 29 | 202 | 9.7 | 27.4 | 0.00 | 0.00 | 0.00 | 34 | 1008.0 |
| 20260505181536 | 29 | 149 | 6.4 | 17.7 | 0.00 | 0.00 | 0.00 | 34 | 1008.0 |
| 20260505181025 | 29 | 185 | 8.0 | 20.9 | 0.00 | 0.00 | 0.00 | 33 | 1008.1 |
| 20260505180522 | 29 | 170 | 6.4 | 20.9 | 0.00 | 0.00 | 0.00 | 35 | 1008.2 |
| 20260505180044 | 29 | 220 | 6.4 | 25.7 | 0.00 | 0.00 | 0.00 | 35 | 1008.2 |
| 20260505175522 | 28 | 196 | 6.4 | 25.7 | 0.00 | 0.00 | 0.00 | 36 | 1008.3 |
| 20260505175022 | 28 | 284 | 6.4 | 17.7 | 0.00 | 0.00 | 0.00 | 36 | 1008.3 |
| 20260505174543 | 28 | 22 | 3.2 | 29.0 | 0.00 | 0.00 | 0.00 | 39 | 1008.4 |
| 20260505174021 | 28 | 200 | 4.8 | 29.0 | 0.00 | 0.00 | 0.00 | 39 | 1008.6 |
| 20260505173521 | 29 | 225 | 6.4 | 29.0 | 0.00 | 0.00 | 0.00 | 38 | 1008.6 |
| 20260505173039 | 28 | 258 | 4.8 | 16.1 | 0.00 | 0.00 | 0.00 | 38 | 1008.6 |
| 20260505172522 | 29 | 5 | 4.8 | 16.1 | 0.00 | 0.00 | 0.00 | 38 | 1008.6 |
| 20260505172022 | 28 | 234 | 4.8 | 16.1 | 0.00 | 0.00 | 0.00 | 39 | 1008.6 |
| 20260505171537 | 28 | 208 | 4.8 | 16.1 | 0.00 | 0.00 | 0.00 | 39 | 1008.8 |
| 20260505171021 | 28 | 192 | 6.4 | 16.1 | 0.00 | 0.00 | 0.00 | 39 | 1008.7 |
| 20260505170520 | 28 | 219 | 1.6 | 17.7 | 0.00 | 0.00 | 0.00 | 39 | 1008.8 |
| 20260505170038 | 28 | 205 | 3.2 | 19.3 | 0.00 | 0.00 | 0.00 | 40 | 1008.8 |
| 20260505165520 | 28 | 221 | 8.0 | 20.9 | 0.00 | 0.00 | 0.00 | 38 | 1008.9 |
| 20260505165020 | 28 | 212 | 9.7 | 27.4 | 0.00 | 0.00 | 0.00 | 37 | 1008.9 |
| 20260505164553 | 28 | 201 | 12.9 | 27.4 | 0.00 | 0.00 | 0.00 | 38 | 1008.9 |
| 20260505164021 | 28 | 148 | 8.0 | 22.5 | 0.00 | 0.00 | 0.00 | 38 | 1009.0 |
| 20260505163519 | 27 | 53 | 8.0 | 22.5 | 0.00 | 0.00 | 0.00 | 38 | 1009.0 |
| 20260505163043 | 27 | 121 | 6.4 | 24.1 | 0.00 | 0.00 | 0.00 | 39 | 1009.1 |
| 20260505162521 | 27 | 232 | 14.5 | 24.1 | 0.00 | 0.00 | 0.00 | 39 | 1009.0 |
| 20260505162020 | 27 | 178 | 6.4 | 20.9 | 0.00 | 0.00 | 0.00 | 39 | 1009.1 |
| 20260505161550 | 27 | 101 | 3.2 | 16.1 | 0.00 | 0.00 | 0.00 | 39 | 1009.3 |
| 20260505161020 | 27 | 196 | 4.8 | 17.7 | 0.00 | 0.00 | 0.00 | 40 | 1009.2 |
| 20260505160519 | 27 | 275 | 6.4 | 17.7 | 0.00 | 0.00 | 0.00 | 40 | 1009.3 |
| 20260505153040 | 26 | 267 | 8.0 | 17.7 | 0.00 | 0.00 | 0.00 | 43 | 1009.7 |
| 20260505152520 | 26 | 150 | 1.6 | 20.9 | 0.00 | 0.00 | 0.00 | 45 | 1009.8 |
| 20260505152020 | 25 | 259 | 8.0 | 20.9 | 0.00 | 0.00 | 0.00 | 44 | 1009.8 |
| 20260505151536 | 25 | 219 | 4.8 | 20.9 | 0.00 | 0.00 | 0.00 | 44 | 1009.6 |
| 20260505151020 | 25 | 222 | 4.8 | 16.1 | 0.00 | 0.00 | 0.00 | 46 | 1009.7 |
| 20260505150520 | 25 | 237 | 6.4 | 16.1 | 0.00 | 0.00 | 0.00 | 45 | 1009.6 |
| 20260505140521 | 22 | 244 | 6.4 | 19.3 | 0.00 | 0.00 | 0.00 | 54 | 1010.5 |
| 20260505125023 | 19 | 233 | 1.6 | 8.0 | 0.00 | 0.00 | 0.00 | 64 | 1010.4 |
| 20260505124545 | 18 | 205 | 1.6 | 8.0 | 0.00 | 0.00 | 0.00 | 65 | 1010.4 |
| 20260505124022 | 18 | 225 | 1.6 | 6.4 | 0.00 | 0.00 | 0.00 | 65 | 1010.4 |
| 20260505123522 | 18 | 0 | 1.6 | 6.4 | 0.00 | 0.00 | 0.00 | 65 | 1010.4 |
| 20260505123049 | 18 | 202 | 1.6 | 4.8 | 0.00 | 0.00 | 0.00 | 66 | 1010.4 |
| 20260505122522 | 18 | 113 | 0.0 | 6.4 | 0.00 | 0.00 | 0.00 | 67 | 1010.4 |
| 20260505122025 | 18 | 0 | 0.0 | 6.4 | 0.00 | 0.00 | 0.00 | 68 | 1010.3 |
| 20260505121543 | 17 | 205 | 0.0 | 4.8 | 0.00 | 0.00 | 0.00 | 68 | 1010.4 |
| 20260505121022 | 17 | 234 | 1.6 | 6.4 | 0.00 | 0.00 | 0.00 | 70 | 1010.3 |
| 20260505120522 | 17 | 0 | 0.0 | 6.4 | 0.00 | 0.00 | 0.00 | 71 | 1010.2 |
| 20260505120048 | 16 | 0 | 0.0 | 3.2 | 0.00 | 0.00 | 0.00 | 73 | 1010.3 |
| 20260505115522 | 16 | 0 | 0.0 | 4.8 | 0.00 | 0.00 | 0.00 | 74 | 1010.4 |
| 20260505115022 | 16 | 0 | 0.0 | 4.8 | 0.00 | 0.00 | 0.00 | 76 | 1010.5 |
| 20260505114538 | 15 | 0 | 0.0 | 1.6 | 0.00 | 0.00 | 0.00 | 78 | 1010.4 |
| 20260505114022 | 15 | 0 | 0.0 | 1.6 | 0.00 | 0.00 | 0.00 | 78 | 1010.3 |
| 20260505113522 | 15 | 0 | 0.0 | 3.2 | 0.00 | 0.00 | 0.00 | 79 | 1010.3 |
| 20260505113040 | 14 | 154 | 0.0 | 3.2 | 0.00 | 0.00 | 0.00 | 79 | 1010.2 |
| 20260505112521 | 14 | 154 | 0.0 | 1.6 | 0.00 | 0.00 | 0.00 | 79 | 1010.3 |
| 20260505112021 | 14 | 0 | 0.0 | 0.0 | 0.00 | 0.00 | 0.00 | 79 | 1010.3 |
| 20260505111537 | 13 | 0 | 0.0 | 0.0 | 0.00 | 0.00 | 0.00 | 79 | 1010.3 |
| 20260505111024 | 13 | 0 | 0.0 | 3.2 | 0.00 | 0.00 | 0.00 | 79 | 1010.3 |
| 20260505110523 | 13 | 0 | 0.0 | 3.2 | 0.00 | 0.00 | 0.00 | 79 | 1010.2 |
| 20260505102022 | 13 | 0 | 0.0 | 0.0 | 0.00 | 0.00 | 0.00 | 79 | 1010.3 |
| 20260505101542 | 13 | 0 | 0.0 | 0.0 | 0.00 | 0.00 | 0.00 | 79 | 1010.3 |
| 20260505101023 | 13 | 0 | 0.0 | 0.0 | 0.00 | 0.00 | 0.00 | 79 | 1010.3 |
| 20260505100524 | 13 | 0 | 0.0 | 0.0 | 0.00 | 0.00 | 0.00 | 79 | 1010.3 |
| 20260505100037 | 13 | 0 | 0.0 | 0.0 | 0.00 | 0.00 | 0.00 | 79 | 1010.3 |
| 20260505095522 | 13 | 0 | 0.0 | 0.0 | 0.00 | 0.00 | 0.00 | 79 | 1010.2 |
| 20260505095022 | 13 | 0 | 0.0 | 0.0 | 0.00 | 0.00 | 0.00 | 79 | 1010.2 |
| 20260505094537 | 13 | 0 | 0.0 | 0.0 | 0.00 | 0.00 | 0.00 | 79 | 1010.2 |
| 20260505094021 | 13 | 0 | 0.0 | 0.0 | 0.00 | 0.00 | 0.00 | 80 | 1010.2 |
| 20260505093522 | 13 | 0 | 0.0 | 0.0 | 0.00 | 0.00 | 0.00 | 79 | 1010.0 |
| 20260505093051 | 13 | 0 | 0.0 | 0.0 | 0.00 | 0.00 | 0.00 | 79 | 1010.1 |
| 20260505092522 | 12 | 0 | 0.0 | 0.0 | 0.00 | 0.00 | 0.00 | 79 | 1009.6 |
| 20260505092021 | 13 | 0 | 0.0 | 0.0 | 0.00 | 0.00 | 0.00 | 79 | 1009.5 |
| 20260505091543 | 13 | 0 | 0.0 | 0.0 | 0.00 | 0.00 | 0.00 | 79 | 1009.4 |
| 20260505091022 | 13 | 0 | 0.0 | 0.0 | 0.00 | 0.00 | 0.00 | 79 | 1009.4 |
| 20260505090522 | 13 | 0 | 0.0 | 0.0 | 0.00 | 0.00 | 0.00 | 79 | 1009.5 |
| 20260505090042 | 13 | 0 | 0.0 | 0.0 | 0.00 | 0.00 | 0.00 | 78 | 1009.3 |
| 20260505085522 | 13 | 0 | 0.0 | 0.0 | 0.00 | 0.00 | 0.00 | 78 | 1009.5 |
| 20260505085022 | 13 | 0 | 0.0 | 0.0 | 0.00 | 0.00 | 0.00 | 78 | 1009.5 |
| 20260505084547 | 13 | 0 | 0.0 | 0.0 | 0.00 | 0.00 | 0.00 | 78 | 1009.4 |
| 20260505084022 | 13 | 0 | 0.0 | 0.0 | 0.00 | 0.00 | 0.00 | 77 | 1009.6 |
| 20260505083521 | 13 | 0 | 0.0 | 0.0 | 0.00 | 0.00 | 0.00 | 77 | 1009.6 |
| 20260505083047 | 13 | 0 | 0.0 | 0.0 | 0.00 | 0.00 | 0.00 | 76 | 1009.6 |
| 20260505082521 | 13 | 0 | 0.0 | 0.0 | 0.00 | 0.00 | 0.00 | 75 | 1009.5 |
| 20260505082021 | 13 | 0 | 0.0 | 0.0 | 0.00 | 0.00 | 0.00 | 75 | 1009.5 |
| 20260505081538 | 13 | 0 | 0.0 | 0.0 | 0.00 | 0.00 | 0.00 | 74 | 1009.5 |
| 20260505081022 | 13 | 0 | 0.0 | 0.0 | 0.00 | 0.00 | 0.00 | 73 | 1009.4 |
| 20260505080521 | 13 | 0 | 0.0 | 0.0 | 0.00 | 0.00 | 0.00 | 73 | 1009.5 |
| 20260505080036 | 13 | 0 | 0.0 | 0.0 | 0.00 | 0.00 | 0.00 | 72 | 1009.6 |
| 20260505075522 | 13 | 0 | 0.0 | 0.0 | 0.00 | 0.00 | 0.00 | 72 | 1009.5 |
| 20260505075022 | 13 | 0 | 0.0 | 0.0 | 0.00 | 0.00 | 0.00 | 72 | 1009.5 |
| 20260505074542 | 13 | 0 | 0.0 | 0.0 | 0.00 | 0.00 | 0.00 | 72 | 1009.5 |
| 20260505074022 | 13 | 0 | 0.0 | 0.0 | 0.00 | 0.00 | 0.00 | 71 | 1009.4 |
| 20260505073521 | 13 | 0 | 0.0 | 0.0 | 0.00 | 0.00 | 0.00 | 71 | 1009.5 |
| 20260505073038 | 13 | 0 | 0.0 | 0.0 | 0.00 | 0.00 | 0.00 | 71 | 1009.5 |
| 20260505072521 | 13 | 0 | 0.0 | 0.0 | 0.00 | 0.00 | 0.00 | 71 | 1009.5 |
| 20260505072024 | 13 | 0 | 0.0 | 0.0 | 0.00 | 0.00 | 0.00 | 71 | 1009.5 |
| 20260505071537 | 13 | 0 | 0.0 | 0.0 | 0.00 | 0.00 | 0.00 | 70 | 1009.4 |
| 20260505071022 | 13 | 0 | 0.0 | 0.0 | 0.00 | 0.00 | 0.00 | 70 | 1009.4 |
| 20260505070524 | 14 | 0 | 0.0 | 0.0 | 0.00 | 0.00 | 0.00 | 70 | 1009.4 |
| 20260505070043 | 14 | 0 | 0.0 | 0.0 | 0.00 | 0.00 | 0.00 | 70 | 1009.4 |
| 20260505065522 | 14 | 0 | 0.0 | 0.0 | 0.00 | 0.00 | 0.00 | 69 | 1009.4 |
| 20260505065021 | 14 | 0 | 0.0 | 0.0 | 0.00 | 0.00 | 0.00 | 69 | 1009.3 |
| 20260505064537 | 14 | 0 | 0.0 | 0.0 | 0.00 | 0.00 | 0.00 | 69 | 1009.3 |
| 20260505064022 | 14 | 0 | 0.0 | 0.0 | 0.00 | 0.00 | 0.00 | 69 | 1009.5 |
| 20260505063522 | 14 | 0 | 0.0 | 0.0 | 0.00 | 0.00 | 0.00 | 69 | 1009.4 |
| 20260505063038 | 15 | 0 | 0.0 | 0.0 | 0.00 | 0.00 | 0.00 | 69 | 1009.4 |
| 20260505062522 | 15 | 0 | 0.0 | 4.8 | 0.00 | 0.00 | 0.00 | 69 | 1009.3 |
| 20260505062022 | 15 | 0 | 0.0 | 4.8 | 0.00 | 0.00 | 0.00 | 69 | 1009.3 |
| 20260505061541 | 15 | 0 | 0.0 | 4.8 | 0.00 | 0.00 | 0.00 | 69 | 1009.4 |
| 20260505061022 | 15 | 0 | 0.0 | 3.2 | 0.00 | 0.00 | 0.00 | 69 | 1009.4 |
| 20260505060522 | 15 | 0 | 0.0 | 4.8 | 0.00 | 0.00 | 0.00 | 69 | 1009.4 |
| 20260505060042 | 15 | 0 | 0.0 | 4.8 | 0.00 | 0.00 | 0.00 | 69 | 1009.4 |
| 20260505055522 | 15 | 0 | 0.0 | 3.2 | 0.00 | 0.00 | 0.00 | 68 | 1009.5 |
| 20260505055022 | 15 | 0 | 0.0 | 3.2 | 0.00 | 0.00 | 0.00 | 69 | 1009.3 |
| 20260505054545 | 15 | 0 | 0.0 | 8.0 | 0.00 | 0.00 | 0.00 | 69 | 1009.4 |
| 20260505054025 | 15 | 0 | 0.0 | 8.0 | 0.00 | 0.00 | 0.00 | 69 | 1009.5 |
| 20260505053524 | 15 | 0 | 1.6 | 8.0 | 0.00 | 0.00 | 0.00 | 68 | 1009.5 |
| 20260505053106 | 15 | 0 | 1.6 | 8.0 | 0.00 | 0.00 | 0.00 | 68 | 1009.5 |
| 20260505052522 | 14 | 181 | 1.6 | 20.9 | 0.00 | 0.00 | 0.00 | 69 | 1009.5 |
| 20260505052022 | 14 | 184 | 0.0 | 20.9 | 0.00 | 0.00 | 0.00 | 68 | 1009.5 |
| 20260505051537 | 14 | 0 | 0.0 | 4.8 | 0.00 | 0.00 | 0.00 | 67 | 1009.6 |
| 20260505051022 | 14 | 90 | 0.0 | 3.2 | 0.00 | 0.00 | 0.00 | 67 | 1009.4 |
| 20260505050521 | 14 | 89 | 0.0 | 0.0 | 0.00 | 0.00 | 0.00 | 66 | 1009.6 |
| 20260505041544 | 15 | 0 | 0.0 | 0.0 | 0.00 | 0.00 | 0.00 | 62 | 1009.7 |
| 20260505041022 | 15 | 0 | 0.0 | 0.0 | 0.00 | 0.00 | 0.00 | 61 | 1009.7 |
| 20260505040522 | 16 | 0 | 0.0 | 0.0 | 0.00 | 0.00 | 0.00 | 60 | 1009.7 |
| 20260505040038 | 16 | 0 | 0.0 | 0.0 | 0.00 | 0.00 | 0.00 | 60 | 1009.7 |
| 20260505035522 | 16 | 0 | 0.0 | 0.0 | 0.00 | 0.00 | 0.00 | 60 | 1009.6 |
| 20260505035021 | 16 | 0 | 0.0 | 1.6 | 0.00 | 0.00 | 0.00 | 59 | 1009.6 |
| 20260505034554 | 16 | 0 | 0.0 | 1.6 | 0.00 | 0.00 | 0.00 | 58 | 1009.6 |
| 20260505034022 | 16 | 0 | 0.0 | 0.0 | 0.00 | 0.00 | 0.00 | 58 | 1009.7 |
| 20260505033525 | 16 | 0 | 0.0 | 4.8 | 0.00 | 0.00 | 0.00 | 57 | 1009.6 |
| 20260505033050 | 16 | 0 | 0.0 | 4.8 | 0.00 | 0.00 | 0.00 | 57 | 1009.7 |
| 20260505032522 | 16 | 0 | 0.0 | 4.8 | 0.00 | 0.00 | 0.00 | 57 | 1009.7 |
| 20260505032021 | 16 | 223 | 0.0 | 3.2 | 0.00 | 0.00 | 0.00 | 56 | 1009.7 |
| 20260505031542 | 16 | 0 | 0.0 | 3.2 | 0.00 | 0.00 | 0.00 | 55 | 1009.7 |
| 20260505031025 | 16 | 225 | 0.0 | 6.4 | 0.00 | 0.00 | 0.00 | 55 | 1009.6 |
| 20260505030522 | 17 | 0 | 0.0 | 6.4 | 0.00 | 0.00 | 0.00 | 55 | 1009.7 |
| 20260505030038 | 17 | 0 | 0.0 | 3.2 | 0.00 | 0.00 | 0.00 | 54 | 1009.6 |
| 20260505025524 | 17 | 0 | 0.0 | 4.8 | 0.00 | 0.00 | 0.00 | 54 | 1009.7 |
| 20260505025021 | 17 | 0 | 0.0 | 4.8 | 0.00 | 0.00 | 0.00 | 53 | 1009.8 |
| 20260505024537 | 17 | 0 | 0.0 | 1.6 | 0.00 | 0.00 | 0.00 | 52 | 1009.8 |
| 20260505024025 | 17 | 0 | 0.0 | 3.2 | 0.00 | 0.00 | 0.00 | 51 | 1009.7 |
| 20260505023521 | 17 | 0 | 0.0 | 3.2 | 0.00 | 0.00 | 0.00 | 51 | 1009.8 |
| 20260505023040 | 17 | 0 | 0.0 | 3.2 | 0.00 | 0.00 | 0.00 | 50 | 1009.8 |
| 20260505022521 | 17 | 0 | 0.0 | 0.0 | 0.00 | 0.00 | 0.00 | 49 | 1009.7 |
| 20260505022022 | 17 | 0 | 0.0 | 0.0 | 0.00 | 0.00 | 0.00 | 48 | 1009.8 |
| 20260505021543 | 17 | 0 | 0.0 | 0.0 | 0.00 | 0.00 | 0.00 | 48 | 1010.0 |
| 20260505021022 | 17 | 0 | 0.0 | 0.0 | 0.00 | 0.00 | 0.00 | 47 | 1010.0 |
| 20260505020522 | 17 | 0 | 0.0 | 0.0 | 0.00 | 0.00 | 0.00 | 46 | 1010.1 |
| 20260505020043 | 18 | 0 | 0.0 | 0.0 | 0.00 | 0.00 | 0.00 | 46 | 1009.9 |
| 20260505015522 | 18 | 0 | 0.0 | 0.0 | 0.00 | 0.00 | 0.00 | 46 | 1009.9 |
| 20260505015022 | 18 | 0 | 0.0 | 0.0 | 0.00 | 0.00 | 0.00 | 46 | 1009.7 |
| 20260505014539 | 18 | 0 | 0.0 | 0.0 | 0.00 | 0.00 | 0.00 | 45 | 1009.7 |
| 20260505014020 | 18 | 0 | 0.0 | 0.0 | 0.00 | 0.00 | 0.00 | 45 | 1009.7 |
| 20260505013523 | 18 | 0 | 0.0 | 0.0 | 0.00 | 0.00 | 0.00 | 45 | 1009.6 |
| 20260505013037 | 18 | 0 | 0.0 | 0.0 | 0.00 | 0.00 | 0.00 | 45 | 1009.6 |
| 20260505012522 | 18 | 0 | 0.0 | 0.0 | 0.00 | 0.00 | 0.00 | 44 | 1009.6 |
| 20260505012022 | 18 | 0 | 0.0 | 0.0 | 0.00 | 0.00 | 0.00 | 44 | 1009.5 |
| 20260505011555 | 19 | 0 | 0.0 | 0.0 | 0.00 | 0.00 | 0.00 | 43 | 1009.5 |
| 20260505011023 | 19 | 0 | 0.0 | 0.0 | 0.00 | 0.00 | 0.00 | 43 | 1009.4 |
| 20260505010522 | 19 | 0 | 0.0 | 0.0 | 0.00 | 0.00 | 0.00 | 43 | 1009.3 |
| 20260505010049 | 19 | 0 | 0.0 | 0.0 | 0.00 | 0.00 | 0.00 | 42 | 1009.2 |
| 20260505005521 | 20 | 0 | 0.0 | 0.0 | 0.00 | 0.00 | 0.00 | 41 | 1009.3 |
| 20260505005022 | 20 | 0 | 0.0 | 0.0 | 0.00 | 0.00 | 0.00 | 41 | 1009.2 |
| 20260505004542 | 20 | 0 | 0.0 | 0.0 | 0.00 | 0.00 | 0.00 | 41 | 1009.1 |
| 20260505004021 | 20 | 0 | 0.0 | 0.0 | 0.00 | 0.00 | 0.00 | 40 | 1009.1 |
| 20260505003521 | 20 | 0 | 0.0 | 0.0 | 0.00 | 0.00 | 0.00 | 40 | 1009.1 |
| 20260505003037 | 20 | 0 | 0.0 | 1.6 | 0.00 | 0.00 | 0.00 | 40 | 1009.0 |
| 20260505002524 | 20 | 0 | 0.0 | 3.2 | 0.00 | 0.00 | 0.00 | 40 | 1009.0 |
| 20260505002022 | 20 | 0 | 0.0 | 8.0 | 0.00 | 0.00 | 0.00 | 39 | 1009.0 |
| 20260505001538 | 20 | 207 | 0.0 | 8.0 | 0.00 | 0.00 | 0.00 | 39 | 1009.0 |
| 20260505001021 | 21 | 0 | 0.0 | 3.2 | 0.00 | 0.00 | 0.00 | 39 | 1008.9 |
| 20260505000521 | 21 | 0 | 0.0 | 4.8 | 0.00 | 0.00 | 0.00 | 38 | 1008.9 |
| 20260505000043 | 21 | 0 | 0.0 | 6.4 | 0.00 | 0.00 | 0.00 | 38 | 1008.8 |
| 20260504235522 | 21 | 186 | 0.0 | 6.4 | 0.00 | 0.00 | 0.00 | 38 | 1008.7 |
| 20260504235022 | 21 | 193 | 1.6 | 6.4 | 0.00 | 0.00 | 0.00 | 37 | 1008.6 |
| 20260504234543 | 21 | 0 | 1.6 | 11.3 | 0.00 | 0.00 | 0.00 | 37 | 1008.6 |
| 20260504234021 | 21 | 0 | 0.0 | 11.3 | 0.00 | 0.00 | 0.00 | 37 | 1008.6 |
| 20260504233524 | 22 | 228 | 0.0 | 9.7 | 0.00 | 0.00 | 0.00 | 36 | 1008.4 |
| 20260504233057 | 22 | 200 | 1.6 | 9.7 | 0.00 | 0.00 | 0.00 | 36 | 1008.5 |
| 20260504232522 | 22 | 209 | 1.6 | 8.0 | 0.00 | 0.00 | 0.00 | 35 | 1008.4 |
| 20260504232021 | 22 | 205 | 1.6 | 19.3 | 0.00 | 0.00 | 0.00 | 35 | 1008.4 |
| 20260504231541 | 22 | 0 | 1.6 | 19.3 | 0.00 | 0.00 | 0.00 | 35 | 1008.3 |
| 20260504231021 | 22 | 159 | 3.2 | 19.3 | 0.00 | 0.00 | 0.00 | 35 | 1008.3 |
| 20260504230522 | 22 | 210 | 3.2 | 17.7 | 0.00 | 0.00 | 0.00 | 35 | 1008.3 |
| 20260504230037 | 22 | 270 | 6.4 | 17.7 | 0.00 | 0.00 | 0.00 | 34 | 1008.2 |
| 20260504225522 | 22 | 0 | 1.6 | 17.7 | 0.00 | 0.00 | 0.00 | 35 | 1008.1 |
| 20260504225021 | 23 | 0 | 1.6 | 17.7 | 0.00 | 0.00 | 0.00 | 35 | 1008.0 |